COSMOS 2251 DEB, 34861

Orbit data source: Space-Track

COSMOS 2251 DEB, 34861 is space debris in LEO originally from a launch on Wed, 16 Jun 1993 UTC launched from the Plesetsk Missile And Space Complex (PKMTR). The debris from Iridium 33, an American commercial communications satellite, has been tracked extensively since its accidental collision with the defunct Russian satellite Cosmos 2251 in 2009. This event, occurring at high speed in low Earth orbit (LEO), generated thousands of pieces of space debris, significantly increasing the risk of further collisions. The Iridium 33 debris cloud has impacted space traffic management and orbital debris mitigation strategies, making it a subject of ongoing study in space situational awareness.

Loading next visibility...
Identifier
34861, 1993-036ACF
Orbit
LEO
Country
Flag of CISCIS
Related business
Manufacturer
Unknown
Mission
Spacecraft
Bus & Motor
Unknown
Mass
Unknown
Launch date (UTC)
1993-06-16 (33 years ago)
Launch vehicle
Unknown
Launch site
Plesetsk Missile And Space Complex (PKMTR)
Object type
Payload
Rocket body
Debris
Shape & HBR
Unknown shape, 0.1 m
Radar Cross Section
Medium (>0.1 m² and <1 m²)

Expand to show TLE details & history
Last TLE update: 11 hours ago

TLE from 11 hours ago
0 COSMOS 2251 DEB
1 34861U 93036ACF 26177.78065877  .00152165  00000-0  47079-2 0  9993
2 34861  73.9997   2.1889 0008777 118.6986 255.7142 15.32756066910629
Epoch: 2026-06-26T18:44Z
TLE epoch observation values (Epoch: 2026-06-26T18:44:08.917Z)
Latitude
13.72216°
Longitude
170.24037°
Altitude
471.058 km
Speed
7.631 km/s
True Right ascension
00h 24m 43s
True Declination
13° 38' 23"
Sunlit
Object was in daylight at epoch
Visualization orbit readout
Latitude
Unknown
Longitude
Unknown
Altitude
Unknown
Speed
Unknown
Apparent Right ascension
Unknown
Apparent Declination
Unknown
Sunlit
N/A
Visualization observer readout
Local Sidereal Time
17:12:36
Azimuth
Unknown
Elevation
Unknown
Doppler factor
Unknown
Orbital elements
Apogee altitude
471.121 km
Perigee altitude
459.109 km
Semi-major axis
6,843.252 km
Eccentricity
0.00088
Inclination
73.9997°
RAAN
2.1889°
Arg. of periapsis
118.6986°
True anomaly
255.61676°
Mean anomaly
255.7142°
Eccentric anomaly
255.66548°
Mean motion
3.83398 °/min
Orbital period
93.9 mins
BSTAR
0.0047079

Documentation

Showing up to 5 results
|